• Processing (Info)

  • MPEC 2006-S62 : 2006 SO78

    The following Minor Planet Electronic Circular may be linked-to from your own Web pages, but must not otherwise be redistributed electronically.

    A form allowing access to any MPEC is at the bottom of this page.


    Read MPEC 2006-S61 Read MPEC 2006-S63


    M.P.E.C. 2006-S62                                Issued 2006 Sept. 26, 15:42 UT
    
         The Minor Planet Electronic Circulars contain information on unusual
             minor planets and routine data on comets.  They are published
       on behalf of Commission 20 of the International Astronomical Union by the
              Minor Planet Center, Smithsonian Astrophysical Observatory,
                              Cambridge, MA 02138, U.S.A.
    
                      Supported in part by the Brinson Foundation
                      Supported in part by the TABASGO Foundation
                 Prepared using the Tamkin Foundation Computer Network
    
                                  MPC@CFA.HARVARD.EDU
              URL http://cfa-www.harvard.edu/iau/mpc.html  ISSN 1523-6714
    
                                       2006 SO78
    
    Observations:
         K06S78O* C2006 09 24.47587 08 25 16.53 +33 16 33.8          20.1 V ES062703
         K06S78O  C2006 09 24.48017 08 25 17.14 +33 16 41.1          19.4 V ES062703
         K06S78O  C2006 09 24.48444 08 25 17.83 +33 16 46.3          20.3 V ES062703
         K06S78O  C2006 09 24.48873 08 25 18.55 +33 16 55.7          21.0 V ES062703
         K06S78O  C2006 09 24.50642 08 25 21.49 +33 17 21.8          21.1 V ES062703
         K06S78O  C2006 09 24.50730 08 25 21.60 +33 17 23.6          19.9 V ES062703
         K06S78O  C2006 09 24.50904 08 25 21.97 +33 17 25.9          20.5 V ES062703
         K06S78O  C2006 09 25.06653 08 26 56.30 +33 31 29.6          20.1 V ES062A44
         K06S78O  C2006 09 25.08258 08 26 59.11 +33 31 53.9          20.2 V ES062A44
         K06S78O  C2006 09 25.09752 08 27 01.59 +33 32 18.5          20.3 V ES062A44
         K06S78O  C2006 09 26.13230 08 29 56.90 +33 57 32.5                 ES062J95
         K06S78O  C2006 09 26.13830 08 29 57.68 +33 57 40.7                 ES062J95
         K06S78O  C2006 09 26.14435 08 29 58.86 +33 57 51.9          20.3 R ES062J95
    
    Observer details:
    703 Catalina Sky Survey.  Observer E. J. Christensen.  Measurers E. C. Beshore,
        E. J. Christensen, G. J. Garradd, A. R. Gibbs, A. D. Grauer, R. E. Hill,
        R. A. Kowalski, S. M. Larson, R. H. McNaught.  0.68-m Schmidt + CCD.
    A44 Altschwendt.  Observer W. Ries.  0.45-m f/3.6 reflector + CCD.
    J95 Great Shefford.  Observer P. Birtwhistle.  0.40-m f/6.0 Schmidt-Cassegrain
        + CCD.
    
    Orbital elements:
    2006 SO78                                                Earth MOID = 0.1685 AU
    Epoch 2006 Sept. 22.0 TT = JDT 2454000.5                MPC
    M   7.52818              (2000.0)            P               Q
    n   0.35934351     Peri.  349.82168     +0.99664332     +0.07467959
    a   1.9594289      Node     6.19759     -0.03387631     +0.74919703
    e   0.5834243      Incl.   18.10098     -0.07452838     +0.65812368
    P   2.74           H   18.9           G   0.15           U   9
    Residuals in seconds of arc
    060924 703  0.9+  0.1+    060924 703  0.8-  0.0     060926 J95  1.0+  0.4-
    060924 703  0.4-  0.5+    060924 703  0.3+  0.5-    060926 J95  1.8-  1.0-
    060924 703  0.6-  1.1-    060925 A44  0.9-  0.2-    060926 J95  0.2+  1.4+
    060924 703  0.5-  1.5+    060925 A44  0.4+  0.7-
    060924 703  0.3-  0.5-    060925 A44  0.0   0.9+
    
    Ephemeris:
    2006 SO78                a,e,i = 1.96, 0.58, 18                  q = 0.8163
    Date    TT    R. A. (2000) Decl.     Delta      r     Elong.  Phase     V
    2006 09 22    08 18.28   +32 08.6    0.513   0.8702    60.1    89.2    20.3
    2006 10 02    08 46.38   +35 59.3    0.588   0.9278    65.6    79.2    20.3
    2006 10 12    09 13.05   +38 24.8    0.652   0.9990    71.0    70.9    20.5
    2006 10 22    09 36.70   +40 08.0    0.702   1.0789    76.8    63.9    20.6
    2006 11 01    09 56.24   +41 37.7    0.739   1.1640    83.1    57.8    20.7
    2006 11 11    10 10.95   +43 12.7    0.764   1.2516    90.1    52.3    20.7
    2006 11 21    10 19.98   +45 05.2    0.779   1.3398    98.0    46.9    20.8
    2006 12 01    10 22.16   +47 19.7    0.788   1.4275   106.6    41.4    20.8
    2006 12 11    10 16.12   +49 50.8    0.796   1.5138   116.0    35.8    20.8
    2006 12 21    10 00.47   +52 21.5    0.810   1.5983   125.7    30.0    20.8
    2006 12 31    09 35.05   +54 21.2    0.836   1.6805   134.9    24.5    20.8
    2007 01 10    09 02.78   +55 16.5    0.878   1.7603   142.0    20.1    20.8
    2007 01 20    08 29.62   +54 50.4    0.942   1.8376   145.1    17.8    21.0
    2007 01 30    08 01.82   +53 12.7    1.029   1.9124   143.5    17.8    21.3
    2007 02 09    07 42.46   +50 51.3    1.137   1.9844   138.2    19.4    21.6
    2007 02 19    07 31.42   +48 12.9    1.265   2.0539   131.0    21.3    22.0
    
    Timothy B. Spahr             (C) Copyright 2006 MPC           M.P.E.C. 2006-S62
    

    Read MPEC 2006-S61 Read MPEC 2006-S63


    MPEC number:

    Enter an MPEC number in one of the following forms:

    • 1997-B01 (the full form)
    • J97B01 (the packed version of the full form)
    • B01 (the abbreviated form)